| time (UTC) | temp F | wind direction | speed MPH | gust MPH | rain 1hr in | rain 24hr in | rain mn in | humidity % | barometer mb |
| 20260831193603 | 81 | 264 | 0.0 | 5.0 | 0.00 | 0.00 | 0.00 | 47 | 1008.1 |
| 20260831192703 | 81 | 280 | 0.0 | 6.0 | 0.00 | 0.00 | 0.00 | 47 | 1008.1 |
| 20260831191824 | 81 | 264 | 0.0 | 5.0 | 0.00 | 0.00 | 0.00 | 48 | 1008.1 |
| 20260831190903 | 81 | 250 | 4.0 | 6.0 | 0.00 | 0.00 | 0.00 | 48 | 1008.1 |
| 20260831190004 | 80 | 287 | 5.0 | 6.0 | 0.00 | 0.00 | 0.00 | 52 | 1008.1 |
| 20260831185404 | 80 | 285 | 0.0 | 4.0 | 0.00 | 0.00 | 0.00 | 49 | 1008.1 |
| 20260831184503 | 80 | 266 | 1.0 | 8.0 | 0.00 | 0.00 | 0.00 | 52 | 1008.1 |
| 20260831183603 | 80 | 262 | 5.0 | 5.0 | 0.00 | 0.00 | 0.00 | 53 | 1008.1 |
| 20260831182703 | 79 | 280 | 5.0 | 5.0 | 0.00 | 0.00 | 0.00 | 52 | 1009.2 |
| 20260831181804 | 79 | 280 | 1.0 | 3.0 | 0.00 | 0.00 | 0.00 | 53 | 1009.2 |
| 20260831180904 | 78 | 292 | 0.0 | 1.0 | 0.00 | 0.00 | 0.00 | 56 | 1008.1 |
| 20260831180003 | 78 | 267 | 1.0 | 4.0 | 0.00 | 0.00 | 0.00 | 57 | 1008.1 |
| 20260831175403 | 78 | 258 | 0.0 | 5.0 | 0.00 | 0.00 | 0.00 | 58 | 1009.2 |
| 20260831174503 | 74 | 270 | 0.0 | 5.0 | 0.00 | 0.00 | 0.00 | 69 | 1009.2 |
| 20260831173603 | 74 | 0 | 0.0 | 0.0 | 0.00 | 0.00 | 0.00 | 69 | 1009.2 |
| 20260831172703 | 74 | 270 | 0.0 | 4.0 | 0.00 | 0.00 | 0.00 | 69 | 1009.2 |
| 20260831171803 | 74 | 270 | 0.0 | 2.0 | 0.00 | 0.00 | 0.00 | 69 | 1009.2 |
| 20260831170924 | 74 | 270 | 0.0 | 2.0 | 0.00 | 0.00 | 0.00 | 69 | 1009.2 |
| 20260831170003 | 74 | 270 | 2.0 | 3.0 | 0.00 | 0.00 | 0.00 | 69 | 1009.2 |
| 20260831165424 | 74 | 270 | 0.0 | 2.0 | 0.00 | 0.00 | 0.00 | 69 | 1009.2 |
| 20260831164524 | 74 | 270 | 0.0 | 1.0 | 0.00 | 0.00 | 0.00 | 69 | 1009.2 |
| 20260831163603 | 74 | 270 | 0.0 | 3.0 | 0.00 | 0.00 | 0.00 | 69 | 1009.2 |
| 20260831162703 | 73 | 270 | 0.0 | 2.0 | 0.00 | 0.00 | 0.00 | 70 | 1009.2 |
| 20260831161803 | 72 | 270 | 1.0 | 3.0 | 0.00 | 0.00 | 0.00 | 70 | 1009.2 |
| 20260831160903 | 72 | 260 | 2.0 | 2.0 | 0.00 | 0.00 | 0.00 | 71 | 1009.2 |
| 20260831160005 | 72 | 247 | 0.0 | 1.0 | 0.00 | 0.00 | 0.00 | 71 | 1009.2 |
| 20260831155424 | 72 | 247 | 0.0 | 6.0 | 0.00 | 0.00 | 0.00 | 72 | 1009.2 |
| 20260831154503 | 72 | 264 | 0.0 | 6.0 | 0.00 | 0.00 | 0.00 | 73 | 1009.2 |
| 20260831153603 | 72 | 270 | 4.0 | 4.0 | 0.00 | 0.00 | 0.00 | 74 | 1009.2 |
| 20260831152703 | 72 | 281 | 3.0 | 6.0 | 0.00 | 0.00 | 0.00 | 76 | 1009.2 |
| 20260831151803 | 71 | 258 | 4.0 | 11.0 | 0.00 | 0.00 | 0.00 | 77 | 1009.2 |
| 20260831150924 | 71 | 262 | 1.0 | 6.0 | 0.00 | 0.00 | 0.00 | 78 | 1009.2 |
| 20260831150004 | 71 | 280 | 3.0 | 5.0 | 0.00 | 0.00 | 0.00 | 80 | 1009.2 |
| 20260831145403 | 71 | 254 | 0.0 | 6.0 | 0.00 | 0.00 | 0.00 | 80 | 1009.2 |
| 20260831144504 | 70 | 257 | 6.0 | 8.0 | 0.00 | 0.00 | 0.00 | 80 | 1009.2 |
| 20260831143625 | 70 | 255 | 3.0 | 8.0 | 0.00 | 0.00 | 0.00 | 81 | 1009.2 |
| 20260831142724 | 70 | 264 | 3.0 | 5.0 | 0.00 | 0.00 | 0.00 | 81 | 1009.2 |
| 20260831141824 | 70 | 292 | 5.0 | 5.0 | 0.00 | 0.00 | 0.00 | 82 | 1009.2 |
| 20260831140903 | 69 | 314 | 0.0 | 3.0 | 0.00 | 0.00 | 0.00 | 82 | 1008.1 |
| 20260831140004 | 69 | 277 | 0.0 | 7.0 | 0.00 | 0.00 | 0.00 | 82 | 1008.1 |
| 20260831135405 | 69 | 258 | 3.0 | 7.0 | 0.00 | 0.00 | 0.00 | 82 | 1008.1 |
| 20260831134503 | 69 | 247 | 2.0 | 5.0 | 0.00 | 0.00 | 0.00 | 83 | 1008.1 |
| 20260831133603 | 69 | 247 | 0.0 | 5.0 | 0.00 | 0.00 | 0.00 | 83 | 1008.1 |
| 20260831132703 | 69 | 247 | 0.0 | 4.0 | 0.00 | 0.00 | 0.00 | 83 | 1008.1 |
| 20260831131803 | 69 | 266 | 0.0 | 4.0 | 0.00 | 0.00 | 0.00 | 83 | 1008.1 |
| 20260831130903 | 68 | 271 | 0.0 | 4.0 | 0.00 | 0.00 | 0.00 | 83 | 1008.1 |
| 20260831130003 | 69 | 290 | 3.0 | 4.0 | 0.00 | 0.00 | 0.00 | 84 | 1008.1 |
| 20260831125403 | 69 | 292 | 3.0 | 4.0 | 0.00 | 0.00 | 0.00 | 85 | 1008.1 |
| 20260831124503 | 69 | 0 | 0.0 | 0.0 | 0.00 | 0.00 | 0.00 | 85 | 1008.1 |
| 20260831123603 | 69 | 0 | 0.0 | 0.0 | 0.00 | 0.00 | 0.00 | 85 | 1008.1 |
| 20260831122703 | 68 | 0 | 0.0 | 0.0 | 0.00 | 0.00 | 0.00 | 86 | 1007.1 |
| 20260831121824 | 69 | 0 | 0.0 | 0.0 | 0.00 | 0.00 | 0.00 | 86 | 1007.1 |
| 20260831120924 | 69 | 0 | 0.0 | 0.0 | 0.00 | 0.00 | 0.00 | 86 | 1007.1 |
| 20260831120003 | 69 | 0 | 0.0 | 0.0 | 0.00 | 0.00 | 0.00 | 86 | 1007.1 |
| 20260831115424 | 69 | 0 | 0.0 | 0.0 | 0.00 | 0.00 | 0.00 | 86 | 1007.1 |
| 20260831114503 | 69 | 0 | 0.0 | 0.0 | 0.00 | 0.00 | 0.00 | 85 | 1007.1 |
| 20260831113603 | 69 | 0 | 0.0 | 0.0 | 0.00 | 0.00 | 0.00 | 86 | 1006.0 |
| 20260831112703 | 69 | 0 | 0.0 | 0.0 | 0.00 | 0.00 | 0.00 | 85 | 1006.0 |
| 20260831111803 | 69 | 292 | 0.0 | 3.0 | 0.00 | 0.00 | 0.00 | 84 | 1006.0 |
| 20260831110903 | 69 | 0 | 0.0 | 0.0 | 0.00 | 0.00 | 0.00 | 84 | 1006.0 |
| 20260831110003 | 69 | 0 | 0.0 | 0.0 | 0.00 | 0.00 | 0.00 | 84 | 1006.0 |
| 20260831105403 | 69 | 0 | 0.0 | 0.0 | 0.00 | 0.00 | 0.00 | 84 | 1006.0 |
| 20260831104503 | 70 | 0 | 0.0 | 0.0 | 0.00 | 0.00 | 0.00 | 83 | 1006.0 |
| 20260831103603 | 70 | 0 | 0.0 | 0.0 | 0.00 | 0.00 | 0.00 | 83 | 1005.0 |
| 20260831102703 | 70 | 0 | 0.0 | 0.0 | 0.00 | 0.00 | 0.00 | 83 | 1005.0 |
| 20260831101803 | 70 | 0 | 0.0 | 0.0 | 0.00 | 0.00 | 0.00 | 82 | 1005.0 |
| 20260831100924 | 70 | 0 | 0.0 | 0.0 | 0.00 | 0.00 | 0.00 | 82 | 1005.0 |
| 20260831100003 | 70 | 292 | 0.0 | 1.0 | 0.00 | 0.00 | 0.00 | 81 | 1005.0 |
| 20260831095403 | 70 | 0 | 0.0 | 0.0 | 0.00 | 0.00 | 0.00 | 81 | 1005.0 |
| 20260831094503 | 70 | 0 | 0.0 | 0.0 | 0.00 | 0.00 | 0.00 | 81 | 1005.0 |
| 20260831093603 | 70 | 0 | 0.0 | 0.0 | 0.00 | 0.00 | 0.00 | 81 | 1005.0 |
| 20260831092703 | 70 | 0 | 0.0 | 0.0 | 0.00 | 0.00 | 0.00 | 80 | 1003.9 |
| 20260831091803 | 70 | 292 | 0.0 | 1.0 | 0.00 | 0.00 | 0.00 | 79 | 1003.9 |
| 20260831090903 | 70 | 0 | 0.0 | 0.0 | 0.00 | 0.00 | 0.00 | 78 | 1003.9 |
| 20260831090024 | 70 | 310 | 0.0 | 4.0 | 0.00 | 0.00 | 0.00 | 78 | 1003.9 |
| 20260831085403 | 70 | 286 | 0.0 | 2.0 | 0.00 | 0.00 | 0.00 | 76 | 1003.9 |
| 20260831084524 | 70 | 240 | 0.0 | 2.0 | 0.00 | 0.00 | 0.00 | 74 | 1003.9 |
| 20260831083603 | 70 | 0 | 0.0 | 0.0 | 0.00 | 0.00 | 0.00 | 73 | 1003.9 |
| 20260831082703 | 70 | 0 | 0.0 | 0.0 | 0.00 | 0.00 | 0.00 | 72 | 1003.9 |
| 20260831081824 | 71 | 0 | 0.0 | 0.0 | 0.00 | 0.00 | 0.00 | 72 | 1003.9 |
| 20260831080903 | 71 | 0 | 0.0 | 0.0 | 0.00 | 0.00 | 0.00 | 71 | 1002.9 |
| 20260831080024 | 71 | 0 | 0.0 | 0.0 | 0.00 | 0.00 | 0.00 | 71 | 1002.9 |
| 20260831075403 | 71 | 0 | 0.0 | 0.0 | 0.00 | 0.00 | 0.00 | 71 | 1002.9 |
| 20260831074503 | 71 | 0 | 0.0 | 0.0 | 0.00 | 0.00 | 0.00 | 70 | 1002.9 |
| 20260831073603 | 71 | 0 | 0.0 | 0.0 | 0.00 | 0.00 | 0.00 | 70 | 1002.9 |
| 20260831072724 | 72 | 0 | 0.0 | 0.0 | 0.00 | 0.00 | 0.00 | 69 | 1002.9 |
| 20260831071803 | 72 | 0 | 0.0 | 0.0 | 0.00 | 0.00 | 0.00 | 69 | 1002.9 |
| 20260831070903 | 72 | 0 | 0.0 | 0.0 | 0.00 | 0.00 | 0.00 | 69 | 1002.9 |
| 20260831070003 | 72 | 0 | 0.0 | 0.0 | 0.00 | 0.00 | 0.00 | 68 | 1002.9 |
| 20260831065403 | 72 | 0 | 0.0 | 0.0 | 0.00 | 0.00 | 0.00 | 68 | 1002.9 |
| 20260831064503 | 73 | 0 | 0.0 | 0.0 | 0.00 | 0.00 | 0.00 | 67 | 1002.9 |
| 20260831063603 | 73 | 0 | 0.0 | 0.0 | 0.00 | 0.00 | 0.00 | 67 | 1002.9 |
| 20260831062703 | 73 | 0 | 0.0 | 0.0 | 0.00 | 0.00 | 0.00 | 66 | 1002.9 |
| 20260831061803 | 73 | 0 | 0.0 | 0.0 | 0.00 | 0.00 | 0.00 | 66 | 1002.9 |
| 20260831060903 | 73 | 0 | 0.0 | 0.0 | 0.00 | 0.00 | 0.00 | 65 | 1002.9 |
| 20260831060024 | 74 | 0 | 0.0 | 0.0 | 0.00 | 0.00 | 0.00 | 65 | 1002.9 |
| 20260831055424 | 74 | 0 | 0.0 | 0.0 | 0.00 | 0.00 | 0.00 | 65 | 1002.9 |
| 20260831054503 | 74 | 0 | 0.0 | 0.0 | 0.00 | 0.00 | 0.00 | 65 | 1002.9 |
| 20260831053603 | 74 | 0 | 0.0 | 0.0 | 0.00 | 0.00 | 0.00 | 64 | 1002.9 |
| 20260831052703 | 74 | 0 | 0.0 | 0.0 | 0.00 | 0.00 | 0.00 | 64 | 1002.9 |
| 20260831051803 | 74 | 0 | 0.0 | 0.0 | 0.00 | 0.00 | 0.00 | 64 | 1002.9 |
| 20260831050903 | 75 | 0 | 0.0 | 0.0 | 0.00 | 0.00 | 0.00 | 64 | 1002.9 |
| 20260831050003 | 82 | 0 | 0.0 | 0.0 | 0.00 | 0.00 | 0.00 | 56 | 1002.9 |
| 20260831045403 | 82 | 0 | 0.0 | 0.0 | 0.00 | 0.00 | 0.00 | 56 | 1002.9 |
| 20260831044503 | 82 | 0 | 0.0 | 0.0 | 0.00 | 0.00 | 0.00 | 56 | 1002.9 |
| 20260831043624 | 82 | 0 | 0.0 | 0.0 | 0.00 | 0.00 | 0.00 | 56 | 1002.9 |
| 20260831042724 | 82 | 0 | 0.0 | 0.0 | 0.00 | 0.00 | 0.00 | 56 | 1002.9 |
| 20260831041803 | 82 | 0 | 0.0 | 0.0 | 0.00 | 0.00 | 0.00 | 56 | 1002.9 |
| 20260831040903 | 82 | 0 | 0.0 | 0.0 | 0.00 | 0.00 | 0.00 | 56 | 1002.9 |
| 20260831040003 | 82 | 0 | 0.0 | 0.0 | 0.00 | 0.00 | 0.00 | 56 | 1002.9 |
| 20260831035424 | 82 | 0 | 0.0 | 0.0 | 0.00 | 0.00 | 0.00 | 56 | 1002.9 |
| 20260831034503 | 82 | 0 | 0.0 | 0.0 | 0.00 | 0.00 | 0.00 | 56 | 1002.9 |
| 20260831033603 | 82 | 0 | 0.0 | 0.0 | 0.00 | 0.00 | 0.00 | 56 | 1002.9 |
| 20260831032703 | 82 | 0 | 0.0 | 0.0 | 0.00 | 0.00 | 0.00 | 56 | 1002.9 |
| 20260831031803 | 82 | 0 | 0.0 | 0.0 | 0.00 | 0.00 | 0.00 | 56 | 1002.9 |
| 20260831030903 | 82 | 0 | 0.0 | 0.0 | 0.00 | 0.00 | 0.00 | 56 | 1002.9 |
| 20260831030003 | 82 | 0 | 0.0 | 0.0 | 0.00 | 0.00 | 0.00 | 56 | 1002.9 |
| 20260831025403 | 82 | 0 | 0.0 | 0.0 | 0.00 | 0.00 | 0.00 | 56 | 1002.9 |
| 20260831024503 | 82 | 0 | 0.0 | 0.0 | 0.00 | 0.00 | 0.00 | 56 | 1002.9 |
| 20260831023603 | 82 | 0 | 0.0 | 0.0 | 0.00 | 0.00 | 0.00 | 56 | 1001.8 |
| 20260831022703 | 82 | 0 | 0.0 | 0.0 | 0.00 | 0.00 | 0.00 | 56 | 1001.8 |
| 20260831021824 | 82 | 0 | 0.0 | 0.0 | 0.00 | 0.00 | 0.00 | 56 | 1001.8 |
| 20260831020903 | 82 | 0 | 0.0 | 0.0 | 0.00 | 0.00 | 0.00 | 56 | 1001.8 |
| 20260831020004 | 82 | 0 | 0.0 | 0.0 | 0.00 | 0.00 | 0.00 | 56 | 1001.8 |
| 20260831015403 | 82 | 0 | 0.0 | 0.0 | 0.00 | 0.00 | 0.00 | 56 | 1000.8 |
| 20260831014503 | 82 | 0 | 0.0 | 0.0 | 0.00 | 0.00 | 0.00 | 56 | 1000.8 |
| 20260831013603 | 82 | 0 | 0.0 | 0.0 | 0.00 | 0.00 | 0.00 | 56 | 1000.8 |
| 20260831012703 | 82 | 0 | 0.0 | 0.0 | 0.00 | 0.00 | 0.00 | 55 | 1000.8 |
| 20260831011824 | 83 | 0 | 0.0 | 0.0 | 0.00 | 0.00 | 0.00 | 53 | 1000.8 |
| 20260831010903 | 83 | 0 | 0.0 | 0.0 | 0.00 | 0.00 | 0.00 | 52 | 1000.8 |
| 20260831010003 | 84 | 0 | 0.0 | 0.0 | 0.00 | 0.00 | 0.00 | 52 | 1000.8 |
| 20260831005424 | 84 | 0 | 0.0 | 0.0 | 0.00 | 0.00 | 0.00 | 51 | 1000.8 |
| 20260831004503 | 85 | 0 | 0.0 | 0.0 | 0.00 | 0.00 | 0.00 | 52 | 1000.8 |
| 20260831003603 | 85 | 235 | 0.0 | 2.0 | 0.00 | 0.00 | 0.00 | 53 | 1000.8 |
| 20260831002703 | 86 | 247 | 0.0 | 1.0 | 0.00 | 0.00 | 0.00 | 53 | 1001.8 |
| 20260831001803 | 86 | 247 | 1.0 | 1.0 | 0.00 | 0.00 | 0.00 | 53 | 1001.8 |
| 20260831000903 | 86 | 0 | 0.0 | 0.0 | 0.00 | 0.00 | 0.00 | 54 | 1000.8 |
| 20260831000003 | 87 | 0 | 0.0 | 0.0 | 0.00 | 0.00 | 0.00 | 55 | 1000.8 |
| 20260830235403 | 87 | 0 | 0.0 | 0.0 | 0.00 | 0.00 | 0.00 | 54 | 1000.8 |
| 20260830234503 | 87 | 0 | 0.0 | 0.0 | 0.00 | 0.00 | 0.00 | 54 | 1000.8 |
| 20260830233603 | 87 | 0 | 0.0 | 0.0 | 0.00 | 0.00 | 0.00 | 54 | 1000.8 |
| 20260830232724 | 88 | 0 | 0.0 | 0.0 | 0.00 | 0.00 | 0.00 | 50 | 1000.8 |
| 20260830231803 | 88 | 0 | 0.0 | 0.0 | 0.00 | 0.00 | 0.00 | 52 | 1000.8 |
| 20260830230924 | 88 | 0 | 0.0 | 0.0 | 0.00 | 0.00 | 0.00 | 50 | 1000.8 |
| 20260830230003 | 88 | 0 | 0.0 | 0.0 | 0.00 | 0.00 | 0.00 | 50 | 1000.8 |
| 20260830225403 | 89 | 0 | 0.0 | 0.0 | 0.00 | 0.00 | 0.00 | 50 | 1000.8 |
| 20260830224503 | 89 | 0 | 0.0 | 0.0 | 0.00 | 0.00 | 0.00 | 50 | 1000.8 |
| 20260830223603 | 89 | 0 | 0.0 | 0.0 | 0.00 | 0.00 | 0.00 | 49 | 1000.8 |
| 20260830222724 | 89 | 0 | 0.0 | 0.0 | 0.00 | 0.00 | 0.00 | 50 | 1000.8 |
| 20260830221824 | 89 | 247 | 0.0 | 1.0 | 0.00 | 0.00 | 0.00 | 50 | 1000.8 |
| 20260830220903 | 89 | 0 | 0.0 | 0.0 | 0.00 | 0.00 | 0.00 | 48 | 1000.8 |
| 20260830220024 | 90 | 315 | 0.0 | 3.0 | 0.00 | 0.00 | 0.00 | 48 | 1000.8 |
| 20260830215403 | 89 | 0 | 0.0 | 0.0 | 0.00 | 0.00 | 0.00 | 49 | 1000.8 |
| 20260830214503 | 89 | 157 | 0.0 | 2.0 | 0.00 | 0.00 | 0.00 | 50 | 1000.8 |
| 20260830213603 | 89 | 209 | 2.0 | 2.0 | 0.00 | 0.00 | 0.00 | 51 | 1000.8 |
| 20260830212703 | 89 | 0 | 0.0 | 0.0 | 0.00 | 0.00 | 0.00 | 52 | 1000.8 |
| 20260830211803 | 89 | 0 | 0.0 | 0.0 | 0.00 | 0.00 | 0.00 | 52 | 1000.8 |
| 20260830210924 | 89 | 157 | 0.0 | 2.0 | 0.00 | 0.00 | 0.00 | 52 | 1000.8 |
| 20260830210003 | 89 | 157 | 0.0 | 2.0 | 0.00 | 0.00 | 0.00 | 53 | 1000.8 |
| 20260830205403 | 89 | 157 | 1.0 | 1.0 | 0.00 | 0.00 | 0.00 | 52 | 1000.8 |
| 20260830204503 | 89 | 292 | 0.0 | 5.0 | 0.00 | 0.00 | 0.00 | 53 | 1000.8 |
| 20260830203603 | 89 | 285 | 0.0 | 1.0 | 0.00 | 0.00 | 0.00 | 53 | 1001.8 |
| 20260830202703 | 89 | 157 | 0.0 | 1.0 | 0.00 | 0.00 | 0.00 | 56 | 1000.8 |
| 20260830201803 | 89 | 157 | 0.0 | 1.0 | 0.00 | 0.00 | 0.00 | 58 | 1000.8 |
| 20260830200903 | 89 | 215 | 0.0 | 2.0 | 0.00 | 0.00 | 0.00 | 59 | 1001.8 |
| 20260830200003 | 88 | 230 | 0.0 | 6.0 | 0.00 | 0.00 | 0.00 | 59 | 1001.8 |
| 20260830195403 | 88 | 255 | 5.0 | 6.0 | 0.00 | 0.00 | 0.00 | 60 | 1001.8 |
| 20260830194503 | 88 | 157 | 1.0 | 2.0 | 0.00 | 0.00 | 0.00 | 61 | 1001.8 |